Index of /20260506/WXO-DD/model_caps/3km/12/015
Name Last modified Size Description
Parent Directory -
20260506T12Z_MSC_CAPS_AbsoluteVorticity_IsbL-0250_RLatLon0.03_PT015H.grib2 2026-05-06 18:16 1.1M
20260506T12Z_MSC_CAPS_AbsoluteVorticity_IsbL-0500_RLatLon0.03_PT015H.grib2 2026-05-06 18:16 1.3M
20260506T12Z_MSC_CAPS_AbsoluteVorticity_IsbL-0700_RLatLon0.03_PT015H.grib2 2026-05-06 18:16 1.3M
20260506T12Z_MSC_CAPS_AbsoluteVorticity_IsbL-0850_RLatLon0.03_PT015H.grib2 2026-05-06 18:16 1.2M
20260506T12Z_MSC_CAPS_AbsoluteVorticity_IsbL-1000_RLatLon0.03_PT015H.grib2 2026-05-06 18:16 1.3M
20260506T12Z_MSC_CAPS_AirDensity_AGL-120m_RLatLon0.03_PT015H.grib2 2026-05-06 18:16 1.4M
20260506T12Z_MSC_CAPS_AirDensity_AGL-40m_RLatLon0.03_PT015H.grib2 2026-05-06 18:16 1.4M
20260506T12Z_MSC_CAPS_AirDensity_AGL-80m_RLatLon0.03_PT015H.grib2 2026-05-06 18:16 1.4M
20260506T12Z_MSC_CAPS_AirTemp_AGL-120m_RLatLon0.03_PT015H.grib2 2026-05-06 18:16 1.8M
20260506T12Z_MSC_CAPS_AirTemp_AGL-2m_RLatLon0.03_PT015H.grib2 2026-05-06 18:16 1.8M
20260506T12Z_MSC_CAPS_AirTemp_AGL-40m_RLatLon0.03_PT015H.grib2 2026-05-06 18:16 1.9M
20260506T12Z_MSC_CAPS_AirTemp_AGL-80m_RLatLon0.03_PT015H.grib2 2026-05-06 18:16 1.8M
20260506T12Z_MSC_CAPS_AirTemp_IsbL-0050_RLatLon0.03_PT015H.grib2 2026-05-06 18:16 685K
20260506T12Z_MSC_CAPS_AirTemp_IsbL-0100_RLatLon0.03_PT015H.grib2 2026-05-06 18:16 945K
20260506T12Z_MSC_CAPS_AirTemp_IsbL-0150_RLatLon0.03_PT015H.grib2 2026-05-06 18:16 746K
20260506T12Z_MSC_CAPS_AirTemp_IsbL-0175_RLatLon0.03_PT015H.grib2 2026-05-06 18:16 774K
20260506T12Z_MSC_CAPS_AirTemp_IsbL-0200_RLatLon0.03_PT015H.grib2 2026-05-06 18:16 802K
20260506T12Z_MSC_CAPS_AirTemp_IsbL-0225_RLatLon0.03_PT015H.grib2 2026-05-06 18:16 801K
20260506T12Z_MSC_CAPS_AirTemp_IsbL-0250_RLatLon0.03_PT015H.grib2 2026-05-06 18:16 1.0M
20260506T12Z_MSC_CAPS_AirTemp_IsbL-0275_RLatLon0.03_PT015H.grib2 2026-05-06 18:16 1.0M
20260506T12Z_MSC_CAPS_AirTemp_IsbL-0300_RLatLon0.03_PT015H.grib2 2026-05-06 18:16 1.0M
20260506T12Z_MSC_CAPS_AirTemp_IsbL-0350_RLatLon0.03_PT015H.grib2 2026-05-06 18:16 753K
20260506T12Z_MSC_CAPS_AirTemp_IsbL-0400_RLatLon0.03_PT015H.grib2 2026-05-06 18:16 755K
20260506T12Z_MSC_CAPS_AirTemp_IsbL-0450_RLatLon0.03_PT015H.grib2 2026-05-06 18:16 771K
20260506T12Z_MSC_CAPS_AirTemp_IsbL-0500_RLatLon0.03_PT015H.grib2 2026-05-06 18:16 784K
20260506T12Z_MSC_CAPS_AirTemp_IsbL-0550_RLatLon0.03_PT015H.grib2 2026-05-06 18:16 797K
20260506T12Z_MSC_CAPS_AirTemp_IsbL-0600_RLatLon0.03_PT015H.grib2 2026-05-06 18:16 814K
20260506T12Z_MSC_CAPS_AirTemp_IsbL-0650_RLatLon0.03_PT015H.grib2 2026-05-06 18:16 842K
20260506T12Z_MSC_CAPS_AirTemp_IsbL-0700_RLatLon0.03_PT015H.grib2 2026-05-06 18:16 1.0M
20260506T12Z_MSC_CAPS_AirTemp_IsbL-0750_RLatLon0.03_PT015H.grib2 2026-05-06 18:16 1.0M
20260506T12Z_MSC_CAPS_AirTemp_IsbL-0800_RLatLon0.03_PT015H.grib2 2026-05-06 18:16 1.1M
20260506T12Z_MSC_CAPS_AirTemp_IsbL-0850_RLatLon0.03_PT015H.grib2 2026-05-06 18:16 1.1M
20260506T12Z_MSC_CAPS_AirTemp_IsbL-0875_RLatLon0.03_PT015H.grib2 2026-05-06 18:16 1.1M
20260506T12Z_MSC_CAPS_AirTemp_IsbL-0900_RLatLon0.03_PT015H.grib2 2026-05-06 18:16 1.1M
20260506T12Z_MSC_CAPS_AirTemp_IsbL-0925_RLatLon0.03_PT015H.grib2 2026-05-06 18:16 1.1M
20260506T12Z_MSC_CAPS_AirTemp_IsbL-0950_RLatLon0.03_PT015H.grib2 2026-05-06 18:16 1.1M
20260506T12Z_MSC_CAPS_AirTemp_IsbL-0970_RLatLon0.03_PT015H.grib2 2026-05-06 18:16 1.2M
20260506T12Z_MSC_CAPS_AirTemp_IsbL-0985_RLatLon0.03_PT015H.grib2 2026-05-06 18:16 1.1M
20260506T12Z_MSC_CAPS_AirTemp_IsbL-1000_RLatLon0.03_PT015H.grib2 2026-05-06 18:16 1.1M
20260506T12Z_MSC_CAPS_AirTemp_IsbL-1015_RLatLon0.03_PT015H.grib2 2026-05-06 18:16 1.1M
20260506T12Z_MSC_CAPS_Albedo_Sfc_RLatLon0.03_PT015H.grib2 2026-05-06 18:16 2.7M
20260506T12Z_MSC_CAPS_CAPE_Sfc_RLatLon0.03_PT015H.grib2 2026-05-06 18:16 221K
20260506T12Z_MSC_CAPS_CloudWater_EAtm_RLatLon0.03_PT015H.grib2 2026-05-06 18:16 1.5M
20260506T12Z_MSC_CAPS_ConvectivePrecip-Accum_Sfc_RLatLon0.03_PT015H.grib2 2026-05-06 18:16 3.3M
20260506T12Z_MSC_CAPS_DewPointDepression_AGL-120m_RLatLon0.03_PT015H.grib2 2026-05-06 18:16 2.1M
20260506T12Z_MSC_CAPS_DewPointDepression_AGL-2m_RLatLon0.03_PT015H.grib2 2026-05-06 18:16 2.2M
20260506T12Z_MSC_CAPS_DewPointDepression_AGL-40m_RLatLon0.03_PT015H.grib2 2026-05-06 18:16 2.2M
20260506T12Z_MSC_CAPS_DewPointDepression_AGL-80m_RLatLon0.03_PT015H.grib2 2026-05-06 18:16 2.2M
20260506T12Z_MSC_CAPS_DewPointDepression_IsbL-0050_RLatLon0.03_PT015H.grib2 2026-05-06 18:16 2.2K
20260506T12Z_MSC_CAPS_DewPointDepression_IsbL-0100_RLatLon0.03_PT015H.grib2 2026-05-06 18:16 62K
20260506T12Z_MSC_CAPS_DewPointDepression_IsbL-0150_RLatLon0.03_PT015H.grib2 2026-05-06 18:16 46K
20260506T12Z_MSC_CAPS_DewPointDepression_IsbL-0175_RLatLon0.03_PT015H.grib2 2026-05-06 18:16 209K
20260506T12Z_MSC_CAPS_DewPointDepression_IsbL-0200_RLatLon0.03_PT015H.grib2 2026-05-06 18:16 410K
20260506T12Z_MSC_CAPS_DewPointDepression_IsbL-0225_RLatLon0.03_PT015H.grib2 2026-05-06 18:16 595K
20260506T12Z_MSC_CAPS_DewPointDepression_IsbL-0250_RLatLon0.03_PT015H.grib2 2026-05-06 18:16 826K
20260506T12Z_MSC_CAPS_DewPointDepression_IsbL-0275_RLatLon0.03_PT015H.grib2 2026-05-06 18:16 1.0M
20260506T12Z_MSC_CAPS_DewPointDepression_IsbL-0300_RLatLon0.03_PT015H.grib2 2026-05-06 18:16 1.0M
20260506T12Z_MSC_CAPS_DewPointDepression_IsbL-0350_RLatLon0.03_PT015H.grib2 2026-05-06 18:16 1.1M
20260506T12Z_MSC_CAPS_DewPointDepression_IsbL-0400_RLatLon0.03_PT015H.grib2 2026-05-06 18:16 1.1M
20260506T12Z_MSC_CAPS_DewPointDepression_IsbL-0450_RLatLon0.03_PT015H.grib2 2026-05-06 18:16 1.1M
20260506T12Z_MSC_CAPS_DewPointDepression_IsbL-0500_RLatLon0.03_PT015H.grib2 2026-05-06 18:16 1.2M
20260506T12Z_MSC_CAPS_DewPointDepression_IsbL-0550_RLatLon0.03_PT015H.grib2 2026-05-06 18:16 1.2M
20260506T12Z_MSC_CAPS_DewPointDepression_IsbL-0600_RLatLon0.03_PT015H.grib2 2026-05-06 18:16 1.2M
20260506T12Z_MSC_CAPS_DewPointDepression_IsbL-0650_RLatLon0.03_PT015H.grib2 2026-05-06 18:16 1.3M
20260506T12Z_MSC_CAPS_DewPointDepression_IsbL-0700_RLatLon0.03_PT015H.grib2 2026-05-06 18:16 1.3M
20260506T12Z_MSC_CAPS_DewPointDepression_IsbL-0750_RLatLon0.03_PT015H.grib2 2026-05-06 18:16 1.3M
20260506T12Z_MSC_CAPS_DewPointDepression_IsbL-0800_RLatLon0.03_PT015H.grib2 2026-05-06 18:16 1.3M
20260506T12Z_MSC_CAPS_DewPointDepression_IsbL-0850_RLatLon0.03_PT015H.grib2 2026-05-06 18:16 1.4M
20260506T12Z_MSC_CAPS_DewPointDepression_IsbL-0875_RLatLon0.03_PT015H.grib2 2026-05-06 18:16 1.4M
20260506T12Z_MSC_CAPS_DewPointDepression_IsbL-0900_RLatLon0.03_PT015H.grib2 2026-05-06 18:16 1.4M
20260506T12Z_MSC_CAPS_DewPointDepression_IsbL-0925_RLatLon0.03_PT015H.grib2 2026-05-06 18:16 1.4M
20260506T12Z_MSC_CAPS_DewPointDepression_IsbL-0950_RLatLon0.03_PT015H.grib2 2026-05-06 18:16 1.4M
20260506T12Z_MSC_CAPS_DewPointDepression_IsbL-0970_RLatLon0.03_PT015H.grib2 2026-05-06 18:16 1.4M
20260506T12Z_MSC_CAPS_DewPointDepression_IsbL-0985_RLatLon0.03_PT015H.grib2 2026-05-06 18:16 1.4M
20260506T12Z_MSC_CAPS_DewPointDepression_IsbL-1000_RLatLon0.03_PT015H.grib2 2026-05-06 18:16 1.4M
20260506T12Z_MSC_CAPS_DewPointDepression_IsbL-1015_RLatLon0.03_PT015H.grib2 2026-05-06 18:16 1.4M
20260506T12Z_MSC_CAPS_DewPoint_AGL-120m_RLatLon0.03_PT015H.grib2 2026-05-06 18:16 3.7M
20260506T12Z_MSC_CAPS_DewPoint_AGL-2m_RLatLon0.03_PT015H.grib2 2026-05-06 18:16 1.8M
20260506T12Z_MSC_CAPS_DewPoint_AGL-40m_RLatLon0.03_PT015H.grib2 2026-05-06 18:16 3.8M
20260506T12Z_MSC_CAPS_DewPoint_AGL-80m_RLatLon0.03_PT015H.grib2 2026-05-06 18:16 3.7M
20260506T12Z_MSC_CAPS_DownwardLongwaveRadiationFlux-Accum_Sfc_RLatLon0.03_PT015H.grib2 2026-05-06 18:16 2.6M
20260506T12Z_MSC_CAPS_DownwardShortwaveRadiationFlux-Accum_NTAtm_RLatLon0.03_PT015H.grib2 2026-05-06 18:16 471K
20260506T12Z_MSC_CAPS_DownwardShortwaveRadiationFlux-Accum_Sfc_RLatLon0.03_PT015H.grib2 2026-05-06 18:16 3.0M
20260506T12Z_MSC_CAPS_FreezingRain-Accum_Sfc_RLatLon0.03_PT015H.grib2 2026-05-06 18:16 437K
20260506T12Z_MSC_CAPS_GeopotentialHeight_IsbL-0050_RLatLon0.03_PT015H.grib2 2026-05-06 18:16 818K
20260506T12Z_MSC_CAPS_GeopotentialHeight_IsbL-0100_RLatLon0.03_PT015H.grib2 2026-05-06 18:16 731K
20260506T12Z_MSC_CAPS_GeopotentialHeight_IsbL-0150_RLatLon0.03_PT015H.grib2 2026-05-06 18:16 604K
20260506T12Z_MSC_CAPS_GeopotentialHeight_IsbL-0175_RLatLon0.03_PT015H.grib2 2026-05-06 18:16 721K
20260506T12Z_MSC_CAPS_GeopotentialHeight_IsbL-0200_RLatLon0.03_PT015H.grib2 2026-05-06 18:16 741K
20260506T12Z_MSC_CAPS_GeopotentialHeight_IsbL-0225_RLatLon0.03_PT015H.grib2 2026-05-06 18:16 752K
20260506T12Z_MSC_CAPS_GeopotentialHeight_IsbL-0250_RLatLon0.03_PT015H.grib2 2026-05-06 18:16 763K
20260506T12Z_MSC_CAPS_GeopotentialHeight_IsbL-0275_RLatLon0.03_PT015H.grib2 2026-05-06 18:16 770K
20260506T12Z_MSC_CAPS_GeopotentialHeight_IsbL-0300_RLatLon0.03_PT015H.grib2 2026-05-06 18:16 776K
20260506T12Z_MSC_CAPS_GeopotentialHeight_IsbL-0350_RLatLon0.03_PT015H.grib2 2026-05-06 18:16 780K
20260506T12Z_MSC_CAPS_GeopotentialHeight_IsbL-0400_RLatLon0.03_PT015H.grib2 2026-05-06 18:16 774K
20260506T12Z_MSC_CAPS_GeopotentialHeight_IsbL-0450_RLatLon0.03_PT015H.grib2 2026-05-06 18:16 766K
20260506T12Z_MSC_CAPS_GeopotentialHeight_IsbL-0500_RLatLon0.03_PT015H.grib2 2026-05-06 18:16 757K
20260506T12Z_MSC_CAPS_GeopotentialHeight_IsbL-0550_RLatLon0.03_PT015H.grib2 2026-05-06 18:16 638K
20260506T12Z_MSC_CAPS_GeopotentialHeight_IsbL-0600_RLatLon0.03_PT015H.grib2 2026-05-06 18:16 632K
20260506T12Z_MSC_CAPS_GeopotentialHeight_IsbL-0650_RLatLon0.03_PT015H.grib2 2026-05-06 18:16 808K
20260506T12Z_MSC_CAPS_GeopotentialHeight_IsbL-0700_RLatLon0.03_PT015H.grib2 2026-05-06 18:16 807K
20260506T12Z_MSC_CAPS_GeopotentialHeight_IsbL-0750_RLatLon0.03_PT015H.grib2 2026-05-06 18:16 808K
20260506T12Z_MSC_CAPS_GeopotentialHeight_IsbL-0800_RLatLon0.03_PT015H.grib2 2026-05-06 18:16 888K
20260506T12Z_MSC_CAPS_GeopotentialHeight_IsbL-0850_RLatLon0.03_PT015H.grib2 2026-05-06 18:16 894K
20260506T12Z_MSC_CAPS_GeopotentialHeight_IsbL-0875_RLatLon0.03_PT015H.grib2 2026-05-06 18:16 808K
20260506T12Z_MSC_CAPS_GeopotentialHeight_IsbL-0900_RLatLon0.03_PT015H.grib2 2026-05-06 18:16 824K
20260506T12Z_MSC_CAPS_GeopotentialHeight_IsbL-0925_RLatLon0.03_PT015H.grib2 2026-05-06 18:16 834K
20260506T12Z_MSC_CAPS_GeopotentialHeight_IsbL-0950_RLatLon0.03_PT015H.grib2 2026-05-06 18:16 845K
20260506T12Z_MSC_CAPS_GeopotentialHeight_IsbL-0970_RLatLon0.03_PT015H.grib2 2026-05-06 18:16 847K
20260506T12Z_MSC_CAPS_GeopotentialHeight_IsbL-0985_RLatLon0.03_PT015H.grib2 2026-05-06 18:16 862K
20260506T12Z_MSC_CAPS_GeopotentialHeight_IsbL-1000_RLatLon0.03_PT015H.grib2 2026-05-06 18:16 872K
20260506T12Z_MSC_CAPS_GeopotentialHeight_IsbL-1015_RLatLon0.03_PT015H.grib2 2026-05-06 18:16 883K
20260506T12Z_MSC_CAPS_GeopotentialHeight_Sfc_RLatLon0.03_PT015H.grib2 2026-05-06 18:16 1.0M
20260506T12Z_MSC_CAPS_IcePellets-Accum_Sfc_RLatLon0.03_PT015H.grib2 2026-05-06 18:16 23K
20260506T12Z_MSC_CAPS_LatentHeatNetFlux_Sfc_RLatLon0.03_PT015H.grib2 2026-05-06 18:16 1.9M
20260506T12Z_MSC_CAPS_LiftedIndex-MU-VT_IsbL-0500_RLatLon0.03_PT015H.grib2 2026-05-06 18:16 3.3M
20260506T12Z_MSC_CAPS_MixedLayerThickness_Sfc_RLatLon0.03_PT015H.nc 2026-05-06 18:13 17M
20260506T12Z_MSC_CAPS_NetLongwaveRadiationFlux-Accum_Sfc_RLatLon0.03_PT015H.grib2 2026-05-06 18:16 2.9M
20260506T12Z_MSC_CAPS_NetShortwaveRadiationFlux-Accum_Sfc_RLatLon0.03_PT015H.grib2 2026-05-06 18:16 3.0M
20260506T12Z_MSC_CAPS_PlanetaryBoundaryLayerHeight_Sfc_RLatLon0.03_PT015H.grib2 2026-05-06 18:16 3.0M
20260506T12Z_MSC_CAPS_Precip-Accum_Sfc_RLatLon0.03_PT015H.grib2 2026-05-06 18:16 4.3M
20260506T12Z_MSC_CAPS_PrecipRate_Sfc_RLatLon0.03_PT015H.grib2 2026-05-06 18:16 417K
20260506T12Z_MSC_CAPS_PrecipType-Instant_Sfc_RLatLon0.03_PT015H.grib2 2026-05-06 18:16 1.8M
20260506T12Z_MSC_CAPS_Pressure_MSL_RLatLon0.03_PT015H.grib2 2026-05-06 18:16 761K
20260506T12Z_MSC_CAPS_Pressure_Sfc_RLatLon0.03_PT015H.grib2 2026-05-06 18:16 1.2M
20260506T12Z_MSC_CAPS_RadiativeTemp_Sfc_RLatLon0.03_PT015H.grib2 2026-05-06 18:16 2.1M
20260506T12Z_MSC_CAPS_Rain-Accum_Sfc_RLatLon0.03_PT015H.grib2 2026-05-06 18:16 2.0M
20260506T12Z_MSC_CAPS_RelativeHumidity_AGL-120m_RLatLon0.03_PT015H.grib2 2026-05-06 18:16 2.9M
20260506T12Z_MSC_CAPS_RelativeHumidity_AGL-2m_RLatLon0.03_PT015H.grib2 2026-05-06 18:16 3.0M
20260506T12Z_MSC_CAPS_RelativeHumidity_AGL-40m_RLatLon0.03_PT015H.grib2 2026-05-06 18:16 2.9M
20260506T12Z_MSC_CAPS_RelativeHumidity_AGL-80m_RLatLon0.03_PT015H.grib2 2026-05-06 18:16 2.9M
20260506T12Z_MSC_CAPS_RelativeHumidity_IsbL-0050_RLatLon0.03_PT015H.grib2 2026-05-06 18:16 955K
20260506T12Z_MSC_CAPS_RelativeHumidity_IsbL-0100_RLatLon0.03_PT015H.grib2 2026-05-06 18:16 1.1M
20260506T12Z_MSC_CAPS_RelativeHumidity_IsbL-0150_RLatLon0.03_PT015H.grib2 2026-05-06 18:16 468K
20260506T12Z_MSC_CAPS_RelativeHumidity_IsbL-0175_RLatLon0.03_PT015H.grib2 2026-05-06 18:16 468K
20260506T12Z_MSC_CAPS_RelativeHumidity_IsbL-0200_RLatLon0.03_PT015H.grib2 2026-05-06 18:16 650K
20260506T12Z_MSC_CAPS_RelativeHumidity_IsbL-0225_RLatLon0.03_PT015H.grib2 2026-05-06 18:16 886K
20260506T12Z_MSC_CAPS_RelativeHumidity_IsbL-0250_RLatLon0.03_PT015H.grib2 2026-05-06 18:16 1.1M
20260506T12Z_MSC_CAPS_RelativeHumidity_IsbL-0275_RLatLon0.03_PT015H.grib2 2026-05-06 18:16 1.4M
20260506T12Z_MSC_CAPS_RelativeHumidity_IsbL-0300_RLatLon0.03_PT015H.grib2 2026-05-06 18:16 1.7M
20260506T12Z_MSC_CAPS_RelativeHumidity_IsbL-0350_RLatLon0.03_PT015H.grib2 2026-05-06 18:16 1.9M
20260506T12Z_MSC_CAPS_RelativeHumidity_IsbL-0400_RLatLon0.03_PT015H.grib2 2026-05-06 18:16 2.1M
20260506T12Z_MSC_CAPS_RelativeHumidity_IsbL-0450_RLatLon0.03_PT015H.grib2 2026-05-06 18:16 2.0M
20260506T12Z_MSC_CAPS_RelativeHumidity_IsbL-0500_RLatLon0.03_PT015H.grib2 2026-05-06 18:16 2.1M
20260506T12Z_MSC_CAPS_RelativeHumidity_IsbL-0550_RLatLon0.03_PT015H.grib2 2026-05-06 18:16 2.1M
20260506T12Z_MSC_CAPS_RelativeHumidity_IsbL-0600_RLatLon0.03_PT015H.grib2 2026-05-06 18:16 2.1M
20260506T12Z_MSC_CAPS_RelativeHumidity_IsbL-0650_RLatLon0.03_PT015H.grib2 2026-05-06 18:16 2.2M
20260506T12Z_MSC_CAPS_RelativeHumidity_IsbL-0700_RLatLon0.03_PT015H.grib2 2026-05-06 18:16 2.3M
20260506T12Z_MSC_CAPS_RelativeHumidity_IsbL-0750_RLatLon0.03_PT015H.grib2 2026-05-06 18:16 2.4M
20260506T12Z_MSC_CAPS_RelativeHumidity_IsbL-0800_RLatLon0.03_PT015H.grib2 2026-05-06 18:16 2.5M
20260506T12Z_MSC_CAPS_RelativeHumidity_IsbL-0850_RLatLon0.03_PT015H.grib2 2026-05-06 18:16 2.6M
20260506T12Z_MSC_CAPS_RelativeHumidity_IsbL-0875_RLatLon0.03_PT015H.grib2 2026-05-06 18:16 2.6M
20260506T12Z_MSC_CAPS_RelativeHumidity_IsbL-0900_RLatLon0.03_PT015H.grib2 2026-05-06 18:16 2.7M
20260506T12Z_MSC_CAPS_RelativeHumidity_IsbL-0925_RLatLon0.03_PT015H.grib2 2026-05-06 18:16 2.8M
20260506T12Z_MSC_CAPS_RelativeHumidity_IsbL-0950_RLatLon0.03_PT015H.grib2 2026-05-06 18:16 2.8M
20260506T12Z_MSC_CAPS_RelativeHumidity_IsbL-0970_RLatLon0.03_PT015H.grib2 2026-05-06 18:16 2.9M
20260506T12Z_MSC_CAPS_RelativeHumidity_IsbL-0985_RLatLon0.03_PT015H.grib2 2026-05-06 18:16 2.9M
20260506T12Z_MSC_CAPS_RelativeHumidity_IsbL-1000_RLatLon0.03_PT015H.grib2 2026-05-06 18:16 3.0M
20260506T12Z_MSC_CAPS_RelativeHumidity_IsbL-1015_RLatLon0.03_PT015H.grib2 2026-05-06 18:16 3.0M
20260506T12Z_MSC_CAPS_Runoff-Accum_Sfc_RLatLon0.03_PT015H.grib2 2026-05-06 18:16 290K
20260506T12Z_MSC_CAPS_SeaIceAreaFraction_Sfc_RLatLon0.03_PT015H.nc 2026-05-06 18:13 15M
20260506T12Z_MSC_CAPS_SeaIceCompressiveStrength_Sfc_RLatLon0.03_PT015H.nc 2026-05-06 18:13 15M
20260506T12Z_MSC_CAPS_SeaIceDivergence_Sfc_RLatLon0.03_PT015H.nc 2026-05-06 18:13 15M
20260506T12Z_MSC_CAPS_SeaIceInternalPressure_Sfc_RLatLon0.03_PT015H.nc 2026-05-06 18:13 15M
20260506T12Z_MSC_CAPS_SeaIceShear_Sfc_RLatLon0.03_PT015H.nc 2026-05-06 18:13 14M
20260506T12Z_MSC_CAPS_SeaIceSnowTemp_Sfc_RLatLon0.03_PT015H.nc 2026-05-06 18:13 14M
20260506T12Z_MSC_CAPS_SeaIceSnowVolume_Sfc_RLatLon0.03_PT015H.nc 2026-05-06 18:13 15M
20260506T12Z_MSC_CAPS_SeaIceVelocityX_Sfc_RLatLon0.03_PT015H.nc 2026-05-06 18:13 15M
20260506T12Z_MSC_CAPS_SeaIceVelocityY_Sfc_RLatLon0.03_PT015H.nc 2026-05-06 18:13 15M
20260506T12Z_MSC_CAPS_SeaIceVolume_Sfc_RLatLon0.03_PT015H.nc 2026-05-06 18:13 15M
20260506T12Z_MSC_CAPS_SeaSurfaceHeight_Sfc_RLatLon0.03_PT015H.nc 2026-05-06 18:13 16M
20260506T12Z_MSC_CAPS_SeaWaterSalinity_DBS-0.5m_RLatLon0.03_PT015H.nc 2026-05-06 18:13 16M
20260506T12Z_MSC_CAPS_SeaWaterSalinity_DBS-all_RLatLon0.03_PT015H.nc 2026-05-06 18:13 107M
20260506T12Z_MSC_CAPS_SeaWaterTemp_DBS-0.5m_RLatLon0.03_PT015H.nc 2026-05-06 18:13 15M
20260506T12Z_MSC_CAPS_SeaWaterTemp_DBS-all_RLatLon0.03_PT015H.nc 2026-05-06 18:13 88M
20260506T12Z_MSC_CAPS_SeaWaterVelocityX_DBS-0.5m_RLatLon0.03_PT015H.nc 2026-05-06 18:13 17M
20260506T12Z_MSC_CAPS_SeaWaterVelocityX_DBS-all_RLatLon0.03_PT015H.nc 2026-05-06 18:13 209M
20260506T12Z_MSC_CAPS_SeaWaterVelocityY_DBS-0.5m_RLatLon0.03_PT015H.nc 2026-05-06 18:13 18M
20260506T12Z_MSC_CAPS_SeaWaterVelocityY_DBS-all_RLatLon0.03_PT015H.nc 2026-05-06 18:13 215M
20260506T12Z_MSC_CAPS_SensibleHeatNetFlux_Sfc_RLatLon0.03_PT015H.grib2 2026-05-06 18:16 2.1M
20260506T12Z_MSC_CAPS_ShowalterIndex_IsbL-0500_RLatLon0.03_PT015H.grib2 2026-05-06 18:16 4.3M
20260506T12Z_MSC_CAPS_Snow-Accum_Sfc_RLatLon0.03_PT015H.grib2 2026-05-06 18:16 3.2M
20260506T12Z_MSC_CAPS_SnowDensity_Sfc_RLatLon0.03_PT015H.grib2 2026-05-06 18:16 1.2M
20260506T12Z_MSC_CAPS_SnowDepthWaterEquivalent_Sfc_RLatLon0.03_PT015H.grib2 2026-05-06 18:16 647K
20260506T12Z_MSC_CAPS_SnowDepth_Sfc_RLatLon0.03_PT015H.grib2 2026-05-06 18:16 1.1M
20260506T12Z_MSC_CAPS_SoilTemp_DBS-0to10cm_RLatLon0.03_PT015H.grib2 2026-05-06 18:16 1.5M
20260506T12Z_MSC_CAPS_SoilTemp_Sfc_RLatLon0.03_PT015H.grib2 2026-05-06 18:16 1.8M
20260506T12Z_MSC_CAPS_SoilVolumetricIceContent_Sfc_RLatLon0.03_PT015H.grib2 2026-05-06 18:16 1.3M
20260506T12Z_MSC_CAPS_SoilVolumetricWaterContent_DBS-0to10cm_RLatLon0.03_PT015H.grib2 2026-05-06 18:16 1.3M
20260506T12Z_MSC_CAPS_SoilVolumetricWaterContent_DBS-0to1cm_RLatLon0.03_PT015H.grib2 2026-05-06 18:16 1.7M
20260506T12Z_MSC_CAPS_SpecificHumidity_AGL-120m_RLatLon0.03_PT015H.grib2 2026-05-06 18:16 1.9M
20260506T12Z_MSC_CAPS_SpecificHumidity_AGL-2m_RLatLon0.03_PT015H.grib2 2026-05-06 18:16 2.2M
20260506T12Z_MSC_CAPS_SpecificHumidity_AGL-40m_RLatLon0.03_PT015H.grib2 2026-05-06 18:16 1.9M
20260506T12Z_MSC_CAPS_SpecificHumidity_AGL-80m_RLatLon0.03_PT015H.grib2 2026-05-06 18:16 1.9M
20260506T12Z_MSC_CAPS_SpecificHumidity_IsbL-0050_RLatLon0.03_PT015H.grib2 2026-05-06 18:16 891K
20260506T12Z_MSC_CAPS_SpecificHumidity_IsbL-0100_RLatLon0.03_PT015H.grib2 2026-05-06 18:16 1.1M
20260506T12Z_MSC_CAPS_SpecificHumidity_IsbL-0150_RLatLon0.03_PT015H.grib2 2026-05-06 18:16 749K
20260506T12Z_MSC_CAPS_SpecificHumidity_IsbL-0175_RLatLon0.03_PT015H.grib2 2026-05-06 18:16 1.0M
20260506T12Z_MSC_CAPS_SpecificHumidity_IsbL-0200_RLatLon0.03_PT015H.grib2 2026-05-06 18:16 865K
20260506T12Z_MSC_CAPS_SpecificHumidity_IsbL-0225_RLatLon0.03_PT015H.grib2 2026-05-06 18:16 835K
20260506T12Z_MSC_CAPS_SpecificHumidity_IsbL-0250_RLatLon0.03_PT015H.grib2 2026-05-06 18:16 835K
20260506T12Z_MSC_CAPS_SpecificHumidity_IsbL-0275_RLatLon0.03_PT015H.grib2 2026-05-06 18:16 1.1M
20260506T12Z_MSC_CAPS_SpecificHumidity_IsbL-0300_RLatLon0.03_PT015H.grib2 2026-05-06 18:16 1.1M
20260506T12Z_MSC_CAPS_SpecificHumidity_IsbL-0350_RLatLon0.03_PT015H.grib2 2026-05-06 18:16 1.0M
20260506T12Z_MSC_CAPS_SpecificHumidity_IsbL-0400_RLatLon0.03_PT015H.grib2 2026-05-06 18:16 1.0M
20260506T12Z_MSC_CAPS_SpecificHumidity_IsbL-0450_RLatLon0.03_PT015H.grib2 2026-05-06 18:16 1.1M
20260506T12Z_MSC_CAPS_SpecificHumidity_IsbL-0500_RLatLon0.03_PT015H.grib2 2026-05-06 18:16 1.1M
20260506T12Z_MSC_CAPS_SpecificHumidity_IsbL-0550_RLatLon0.03_PT015H.grib2 2026-05-06 18:16 1.2M
20260506T12Z_MSC_CAPS_SpecificHumidity_IsbL-0600_RLatLon0.03_PT015H.grib2 2026-05-06 18:16 1.3M
20260506T12Z_MSC_CAPS_SpecificHumidity_IsbL-0650_RLatLon0.03_PT015H.grib2 2026-05-06 18:16 1.5M
20260506T12Z_MSC_CAPS_SpecificHumidity_IsbL-0700_RLatLon0.03_PT015H.grib2 2026-05-06 18:16 1.7M
20260506T12Z_MSC_CAPS_SpecificHumidity_IsbL-0750_RLatLon0.03_PT015H.grib2 2026-05-06 18:16 1.4M
20260506T12Z_MSC_CAPS_SpecificHumidity_IsbL-0800_RLatLon0.03_PT015H.grib2 2026-05-06 18:16 1.6M
20260506T12Z_MSC_CAPS_SpecificHumidity_IsbL-0850_RLatLon0.03_PT015H.grib2 2026-05-06 18:16 1.7M
20260506T12Z_MSC_CAPS_SpecificHumidity_IsbL-0875_RLatLon0.03_PT015H.grib2 2026-05-06 18:16 1.8M
20260506T12Z_MSC_CAPS_SpecificHumidity_IsbL-0900_RLatLon0.03_PT015H.grib2 2026-05-06 18:16 1.9M
20260506T12Z_MSC_CAPS_SpecificHumidity_IsbL-0925_RLatLon0.03_PT015H.grib2 2026-05-06 18:16 2.0M
20260506T12Z_MSC_CAPS_SpecificHumidity_IsbL-0950_RLatLon0.03_PT015H.grib2 2026-05-06 18:16 2.0M
20260506T12Z_MSC_CAPS_SpecificHumidity_IsbL-0970_RLatLon0.03_PT015H.grib2 2026-05-06 18:16 2.1M
20260506T12Z_MSC_CAPS_SpecificHumidity_IsbL-0985_RLatLon0.03_PT015H.grib2 2026-05-06 18:16 2.1M
20260506T12Z_MSC_CAPS_SpecificHumidity_IsbL-1000_RLatLon0.03_PT015H.grib2 2026-05-06 18:16 2.2M
20260506T12Z_MSC_CAPS_SpecificHumidity_IsbL-1015_RLatLon0.03_PT015H.grib2 2026-05-06 18:16 2.2M
20260506T12Z_MSC_CAPS_SpecificHumidity_Sfc_RLatLon0.03_PT015H.grib2 2026-05-06 18:16 2.1M
20260506T12Z_MSC_CAPS_StormRelativeHelicity_Sfc_RLatLon0.03_PT015H.grib2 2026-05-06 18:16 3.1M
20260506T12Z_MSC_CAPS_Thickness_IsbL-1000to0500_RLatLon0.03_PT015H.grib2 2026-05-06 18:16 412K
20260506T12Z_MSC_CAPS_TotalCloudCover_Sfc_RLatLon0.03_PT015H.grib2 2026-05-06 18:16 3.7M
20260506T12Z_MSC_CAPS_TurboclineDepth_Sfc_RLatLon0.03_PT015H.nc 2026-05-06 18:13 16M
20260506T12Z_MSC_CAPS_UpwardLongwaveRadiationFlux_NTAtm_RLatLon0.03_PT015H.grib2 2026-05-06 18:16 3.0M
20260506T12Z_MSC_CAPS_UpwardShortwaveRadiationFlux_NTAtm_RLatLon0.03_PT015H.grib2 2026-05-06 18:16 2.0M
20260506T12Z_MSC_CAPS_VerticalVelocity_IsbL-0250_RLatLon0.03_PT015H.grib2 2026-05-06 18:16 919K
20260506T12Z_MSC_CAPS_VerticalVelocity_IsbL-0500_RLatLon0.03_PT015H.grib2 2026-05-06 18:16 1.2M
20260506T12Z_MSC_CAPS_VerticalVelocity_IsbL-0700_RLatLon0.03_PT015H.grib2 2026-05-06 18:16 1.3M
20260506T12Z_MSC_CAPS_VerticalVelocity_IsbL-0850_RLatLon0.03_PT015H.grib2 2026-05-06 18:16 1.4M
20260506T12Z_MSC_CAPS_VerticalVelocity_IsbL-1000_RLatLon0.03_PT015H.grib2 2026-05-06 18:16 1.4M
20260506T12Z_MSC_CAPS_WindDir_AGL-10m_RLatLon0.03_PT015H.grib2 2026-05-06 18:16 2.4M
20260506T12Z_MSC_CAPS_WindDir_AGL-120m_RLatLon0.03_PT015H.grib2 2026-05-06 18:16 1.2M
20260506T12Z_MSC_CAPS_WindDir_AGL-40m_RLatLon0.03_PT015H.grib2 2026-05-06 18:16 1.3M
20260506T12Z_MSC_CAPS_WindDir_AGL-80m_RLatLon0.03_PT015H.grib2 2026-05-06 18:16 1.3M
20260506T12Z_MSC_CAPS_WindDir_IsbL-0050_RLatLon0.03_PT015H.grib2 2026-05-06 18:16 1.1M
20260506T12Z_MSC_CAPS_WindDir_IsbL-0100_RLatLon0.03_PT015H.grib2 2026-05-06 18:16 1.0M
20260506T12Z_MSC_CAPS_WindDir_IsbL-0150_RLatLon0.03_PT015H.grib2 2026-05-06 18:16 1.0M
20260506T12Z_MSC_CAPS_WindDir_IsbL-0175_RLatLon0.03_PT015H.grib2 2026-05-06 18:16 1.0M
20260506T12Z_MSC_CAPS_WindDir_IsbL-0200_RLatLon0.03_PT015H.grib2 2026-05-06 18:16 1.2M
20260506T12Z_MSC_CAPS_WindDir_IsbL-0225_RLatLon0.03_PT015H.grib2 2026-05-06 18:16 1.1M
20260506T12Z_MSC_CAPS_WindDir_IsbL-0250_RLatLon0.03_PT015H.grib2 2026-05-06 18:16 1.1M
20260506T12Z_MSC_CAPS_WindDir_IsbL-0275_RLatLon0.03_PT015H.grib2 2026-05-06 18:16 1.1M
20260506T12Z_MSC_CAPS_WindDir_IsbL-0300_RLatLon0.03_PT015H.grib2 2026-05-06 18:16 1.1M
20260506T12Z_MSC_CAPS_WindDir_IsbL-0350_RLatLon0.03_PT015H.grib2 2026-05-06 18:16 1.1M
20260506T12Z_MSC_CAPS_WindDir_IsbL-0400_RLatLon0.03_PT015H.grib2 2026-05-06 18:16 1.2M
20260506T12Z_MSC_CAPS_WindDir_IsbL-0450_RLatLon0.03_PT015H.grib2 2026-05-06 18:16 1.2M
20260506T12Z_MSC_CAPS_WindDir_IsbL-0500_RLatLon0.03_PT015H.grib2 2026-05-06 18:16 1.2M
20260506T12Z_MSC_CAPS_WindDir_IsbL-0550_RLatLon0.03_PT015H.grib2 2026-05-06 18:16 1.2M
20260506T12Z_MSC_CAPS_WindDir_IsbL-0600_RLatLon0.03_PT015H.grib2 2026-05-06 18:16 1.3M
20260506T12Z_MSC_CAPS_WindDir_IsbL-0650_RLatLon0.03_PT015H.grib2 2026-05-06 18:16 1.3M
20260506T12Z_MSC_CAPS_WindDir_IsbL-0700_RLatLon0.03_PT015H.grib2 2026-05-06 18:16 1.5M
20260506T12Z_MSC_CAPS_WindDir_IsbL-0750_RLatLon0.03_PT015H.grib2 2026-05-06 18:16 1.6M
20260506T12Z_MSC_CAPS_WindDir_IsbL-0800_RLatLon0.03_PT015H.grib2 2026-05-06 18:16 1.7M
20260506T12Z_MSC_CAPS_WindDir_IsbL-0850_RLatLon0.03_PT015H.grib2 2026-05-06 18:16 1.8M
20260506T12Z_MSC_CAPS_WindDir_IsbL-0875_RLatLon0.03_PT015H.grib2 2026-05-06 18:16 1.9M
20260506T12Z_MSC_CAPS_WindDir_IsbL-0900_RLatLon0.03_PT015H.grib2 2026-05-06 18:16 1.9M
20260506T12Z_MSC_CAPS_WindDir_IsbL-0925_RLatLon0.03_PT015H.grib2 2026-05-06 18:16 2.0M
20260506T12Z_MSC_CAPS_WindDir_IsbL-0950_RLatLon0.03_PT015H.grib2 2026-05-06 18:16 2.0M
20260506T12Z_MSC_CAPS_WindDir_IsbL-0970_RLatLon0.03_PT015H.grib2 2026-05-06 18:16 2.1M
20260506T12Z_MSC_CAPS_WindDir_IsbL-0985_RLatLon0.03_PT015H.grib2 2026-05-06 18:16 2.2M
20260506T12Z_MSC_CAPS_WindDir_IsbL-1000_RLatLon0.03_PT015H.grib2 2026-05-06 18:16 2.3M
20260506T12Z_MSC_CAPS_WindDir_IsbL-1015_RLatLon0.03_PT015H.grib2 2026-05-06 18:16 2.4M
20260506T12Z_MSC_CAPS_WindGust-Max_AGL-10m_RLatLon0.03_PT015H.grib2 2026-05-06 18:16 2.5M
20260506T12Z_MSC_CAPS_WindGust-Min_AGL-10m_RLatLon0.03_PT015H.grib2 2026-05-06 18:16 2.4M
20260506T12Z_MSC_CAPS_WindGust_AGL-10m_RLatLon0.03_PT015H.grib2 2026-05-06 18:16 2.4M
20260506T12Z_MSC_CAPS_WindSpeed_AGL-10m_RLatLon0.03_PT015H.grib2 2026-05-06 18:16 2.1M
20260506T12Z_MSC_CAPS_WindSpeed_AGL-120m_RLatLon0.03_PT015H.grib2 2026-05-06 18:16 1.1M
20260506T12Z_MSC_CAPS_WindSpeed_AGL-40m_RLatLon0.03_PT015H.grib2 2026-05-06 18:16 1.2M
20260506T12Z_MSC_CAPS_WindSpeed_AGL-80m_RLatLon0.03_PT015H.grib2 2026-05-06 18:16 1.1M
20260506T12Z_MSC_CAPS_WindSpeed_IsbL-0050_RLatLon0.03_PT015H.grib2 2026-05-06 18:16 947K
20260506T12Z_MSC_CAPS_WindSpeed_IsbL-0100_RLatLon0.03_PT015H.grib2 2026-05-06 18:16 1.3M
20260506T12Z_MSC_CAPS_WindSpeed_IsbL-0150_RLatLon0.03_PT015H.grib2 2026-05-06 18:16 1.0M
20260506T12Z_MSC_CAPS_WindSpeed_IsbL-0175_RLatLon0.03_PT015H.grib2 2026-05-06 18:16 1.1M
20260506T12Z_MSC_CAPS_WindSpeed_IsbL-0200_RLatLon0.03_PT015H.grib2 2026-05-06 18:16 1.2M
20260506T12Z_MSC_CAPS_WindSpeed_IsbL-0225_RLatLon0.03_PT015H.grib2 2026-05-06 18:16 961K
20260506T12Z_MSC_CAPS_WindSpeed_IsbL-0250_RLatLon0.03_PT015H.grib2 2026-05-06 18:16 1.0M
20260506T12Z_MSC_CAPS_WindSpeed_IsbL-0275_RLatLon0.03_PT015H.grib2 2026-05-06 18:16 1.0M
20260506T12Z_MSC_CAPS_WindSpeed_IsbL-0300_RLatLon0.03_PT015H.grib2 2026-05-06 18:16 1.0M
20260506T12Z_MSC_CAPS_WindSpeed_IsbL-0350_RLatLon0.03_PT015H.grib2 2026-05-06 18:16 1.0M
20260506T12Z_MSC_CAPS_WindSpeed_IsbL-0400_RLatLon0.03_PT015H.grib2 2026-05-06 18:16 1.0M
20260506T12Z_MSC_CAPS_WindSpeed_IsbL-0450_RLatLon0.03_PT015H.grib2 2026-05-06 18:16 1.3M
20260506T12Z_MSC_CAPS_WindSpeed_IsbL-0500_RLatLon0.03_PT015H.grib2 2026-05-06 18:16 1.4M
20260506T12Z_MSC_CAPS_WindSpeed_IsbL-0550_RLatLon0.03_PT015H.grib2 2026-05-06 18:16 1.4M
20260506T12Z_MSC_CAPS_WindSpeed_IsbL-0600_RLatLon0.03_PT015H.grib2 2026-05-06 18:16 1.4M
20260506T12Z_MSC_CAPS_WindSpeed_IsbL-0650_RLatLon0.03_PT015H.grib2 2026-05-06 18:16 1.4M
20260506T12Z_MSC_CAPS_WindSpeed_IsbL-0700_RLatLon0.03_PT015H.grib2 2026-05-06 18:16 1.5M
20260506T12Z_MSC_CAPS_WindSpeed_IsbL-0750_RLatLon0.03_PT015H.grib2 2026-05-06 18:16 1.6M
20260506T12Z_MSC_CAPS_WindSpeed_IsbL-0800_RLatLon0.03_PT015H.grib2 2026-05-06 18:16 1.7M
20260506T12Z_MSC_CAPS_WindSpeed_IsbL-0850_RLatLon0.03_PT015H.grib2 2026-05-06 18:16 1.7M
20260506T12Z_MSC_CAPS_WindSpeed_IsbL-0875_RLatLon0.03_PT015H.grib2 2026-05-06 18:16 1.8M
20260506T12Z_MSC_CAPS_WindSpeed_IsbL-0900_RLatLon0.03_PT015H.grib2 2026-05-06 18:16 1.8M
20260506T12Z_MSC_CAPS_WindSpeed_IsbL-0925_RLatLon0.03_PT015H.grib2 2026-05-06 18:16 1.9M
20260506T12Z_MSC_CAPS_WindSpeed_IsbL-0950_RLatLon0.03_PT015H.grib2 2026-05-06 18:16 1.9M
20260506T12Z_MSC_CAPS_WindSpeed_IsbL-0970_RLatLon0.03_PT015H.grib2 2026-05-06 18:16 2.0M
20260506T12Z_MSC_CAPS_WindSpeed_IsbL-0985_RLatLon0.03_PT015H.grib2 2026-05-06 18:16 2.0M
20260506T12Z_MSC_CAPS_WindSpeed_IsbL-1000_RLatLon0.03_PT015H.grib2 2026-05-06 18:16 2.0M
20260506T12Z_MSC_CAPS_WindSpeed_IsbL-1015_RLatLon0.03_PT015H.grib2 2026-05-06 18:16 2.1M
20260506T12Z_MSC_CAPS_WindU_AGL-10m_RLatLon0.03_PT015H.grib2 2026-05-06 18:16 1.9M
20260506T12Z_MSC_CAPS_WindU_AGL-120m_RLatLon0.03_PT015H.grib2 2026-05-06 18:16 890K
20260506T12Z_MSC_CAPS_WindU_AGL-40m_RLatLon0.03_PT015H.grib2 2026-05-06 18:16 1.2M
20260506T12Z_MSC_CAPS_WindU_AGL-80m_RLatLon0.03_PT015H.grib2 2026-05-06 18:16 1.2M
20260506T12Z_MSC_CAPS_WindU_IsbL-0050_RLatLon0.03_PT015H.grib2 2026-05-06 18:16 713K
20260506T12Z_MSC_CAPS_WindU_IsbL-0100_RLatLon0.03_PT015H.grib2 2026-05-06 18:16 957K
20260506T12Z_MSC_CAPS_WindU_IsbL-0150_RLatLon0.03_PT015H.grib2 2026-05-06 18:16 919K
20260506T12Z_MSC_CAPS_WindU_IsbL-0175_RLatLon0.03_PT015H.grib2 2026-05-06 18:16 733K
20260506T12Z_MSC_CAPS_WindU_IsbL-0200_RLatLon0.03_PT015H.grib2 2026-05-06 18:16 885K
20260506T12Z_MSC_CAPS_WindU_IsbL-0225_RLatLon0.03_PT015H.grib2 2026-05-06 18:16 901K
20260506T12Z_MSC_CAPS_WindU_IsbL-0250_RLatLon0.03_PT015H.grib2 2026-05-06 18:16 919K
20260506T12Z_MSC_CAPS_WindU_IsbL-0275_RLatLon0.03_PT015H.grib2 2026-05-06 18:16 926K
20260506T12Z_MSC_CAPS_WindU_IsbL-0300_RLatLon0.03_PT015H.grib2 2026-05-06 18:16 931K
20260506T12Z_MSC_CAPS_WindU_IsbL-0350_RLatLon0.03_PT015H.grib2 2026-05-06 18:16 944K
20260506T12Z_MSC_CAPS_WindU_IsbL-0400_RLatLon0.03_PT015H.grib2 2026-05-06 18:16 952K
20260506T12Z_MSC_CAPS_WindU_IsbL-0450_RLatLon0.03_PT015H.grib2 2026-05-06 18:16 968K
20260506T12Z_MSC_CAPS_WindU_IsbL-0500_RLatLon0.03_PT015H.grib2 2026-05-06 18:16 869K
20260506T12Z_MSC_CAPS_WindU_IsbL-0550_RLatLon0.03_PT015H.grib2 2026-05-06 18:16 901K
20260506T12Z_MSC_CAPS_WindU_IsbL-0600_RLatLon0.03_PT015H.grib2 2026-05-06 18:16 933K
20260506T12Z_MSC_CAPS_WindU_IsbL-0650_RLatLon0.03_PT015H.grib2 2026-05-06 18:16 971K
20260506T12Z_MSC_CAPS_WindU_IsbL-0700_RLatLon0.03_PT015H.grib2 2026-05-06 18:16 1.0M
20260506T12Z_MSC_CAPS_WindU_IsbL-0750_RLatLon0.03_PT015H.grib2 2026-05-06 18:16 1.1M
20260506T12Z_MSC_CAPS_WindU_IsbL-0800_RLatLon0.03_PT015H.grib2 2026-05-06 18:16 1.1M
20260506T12Z_MSC_CAPS_WindU_IsbL-0850_RLatLon0.03_PT015H.grib2 2026-05-06 18:16 1.2M
20260506T12Z_MSC_CAPS_WindU_IsbL-0875_RLatLon0.03_PT015H.grib2 2026-05-06 18:16 1.2M
20260506T12Z_MSC_CAPS_WindU_IsbL-0900_RLatLon0.03_PT015H.grib2 2026-05-06 18:16 1.3M
20260506T12Z_MSC_CAPS_WindU_IsbL-0925_RLatLon0.03_PT015H.grib2 2026-05-06 18:16 1.3M
20260506T12Z_MSC_CAPS_WindU_IsbL-0950_RLatLon0.03_PT015H.grib2 2026-05-06 18:16 1.3M
20260506T12Z_MSC_CAPS_WindU_IsbL-0970_RLatLon0.03_PT015H.grib2 2026-05-06 18:16 1.4M
20260506T12Z_MSC_CAPS_WindU_IsbL-0985_RLatLon0.03_PT015H.grib2 2026-05-06 18:16 1.4M
20260506T12Z_MSC_CAPS_WindU_IsbL-1000_RLatLon0.03_PT015H.grib2 2026-05-06 18:16 1.8M
20260506T12Z_MSC_CAPS_WindU_IsbL-1015_RLatLon0.03_PT015H.grib2 2026-05-06 18:16 1.9M
20260506T12Z_MSC_CAPS_WindV_AGL-10m_RLatLon0.03_PT015H.grib2 2026-05-06 18:16 2.0M
20260506T12Z_MSC_CAPS_WindV_AGL-120m_RLatLon0.03_PT015H.grib2 2026-05-06 18:16 1.1M
20260506T12Z_MSC_CAPS_WindV_AGL-40m_RLatLon0.03_PT015H.grib2 2026-05-06 18:16 1.2M
20260506T12Z_MSC_CAPS_WindV_AGL-80m_RLatLon0.03_PT015H.grib2 2026-05-06 18:16 1.2M
20260506T12Z_MSC_CAPS_WindV_IsbL-0050_RLatLon0.03_PT015H.grib2 2026-05-06 18:16 764K
20260506T12Z_MSC_CAPS_WindV_IsbL-0100_RLatLon0.03_PT015H.grib2 2026-05-06 18:16 784K
20260506T12Z_MSC_CAPS_WindV_IsbL-0150_RLatLon0.03_PT015H.grib2 2026-05-06 18:16 911K
20260506T12Z_MSC_CAPS_WindV_IsbL-0175_RLatLon0.03_PT015H.grib2 2026-05-06 18:16 725K
20260506T12Z_MSC_CAPS_WindV_IsbL-0200_RLatLon0.03_PT015H.grib2 2026-05-06 18:16 876K
20260506T12Z_MSC_CAPS_WindV_IsbL-0225_RLatLon0.03_PT015H.grib2 2026-05-06 18:16 894K
20260506T12Z_MSC_CAPS_WindV_IsbL-0250_RLatLon0.03_PT015H.grib2 2026-05-06 18:16 914K
20260506T12Z_MSC_CAPS_WindV_IsbL-0275_RLatLon0.03_PT015H.grib2 2026-05-06 18:16 920K
20260506T12Z_MSC_CAPS_WindV_IsbL-0300_RLatLon0.03_PT015H.grib2 2026-05-06 18:16 927K
20260506T12Z_MSC_CAPS_WindV_IsbL-0350_RLatLon0.03_PT015H.grib2 2026-05-06 18:16 942K
20260506T12Z_MSC_CAPS_WindV_IsbL-0400_RLatLon0.03_PT015H.grib2 2026-05-06 18:16 950K
20260506T12Z_MSC_CAPS_WindV_IsbL-0450_RLatLon0.03_PT015H.grib2 2026-05-06 18:16 964K
20260506T12Z_MSC_CAPS_WindV_IsbL-0500_RLatLon0.03_PT015H.grib2 2026-05-06 18:16 1.0M
20260506T12Z_MSC_CAPS_WindV_IsbL-0550_RLatLon0.03_PT015H.grib2 2026-05-06 18:16 895K
20260506T12Z_MSC_CAPS_WindV_IsbL-0600_RLatLon0.03_PT015H.grib2 2026-05-06 18:16 926K
20260506T12Z_MSC_CAPS_WindV_IsbL-0650_RLatLon0.03_PT015H.grib2 2026-05-06 18:16 963K
20260506T12Z_MSC_CAPS_WindV_IsbL-0700_RLatLon0.03_PT015H.grib2 2026-05-06 18:16 1.0M
20260506T12Z_MSC_CAPS_WindV_IsbL-0750_RLatLon0.03_PT015H.grib2 2026-05-06 18:16 1.1M
20260506T12Z_MSC_CAPS_WindV_IsbL-0800_RLatLon0.03_PT015H.grib2 2026-05-06 18:16 1.1M
20260506T12Z_MSC_CAPS_WindV_IsbL-0850_RLatLon0.03_PT015H.grib2 2026-05-06 18:16 1.2M
20260506T12Z_MSC_CAPS_WindV_IsbL-0875_RLatLon0.03_PT015H.grib2 2026-05-06 18:16 1.2M
20260506T12Z_MSC_CAPS_WindV_IsbL-0900_RLatLon0.03_PT015H.grib2 2026-05-06 18:16 1.3M
20260506T12Z_MSC_CAPS_WindV_IsbL-0925_RLatLon0.03_PT015H.grib2 2026-05-06 18:16 1.3M
20260506T12Z_MSC_CAPS_WindV_IsbL-0950_RLatLon0.03_PT015H.grib2 2026-05-06 18:16 1.3M
20260506T12Z_MSC_CAPS_WindV_IsbL-0970_RLatLon0.03_PT015H.grib2 2026-05-06 18:16 1.4M
20260506T12Z_MSC_CAPS_WindV_IsbL-0985_RLatLon0.03_PT015H.grib2 2026-05-06 18:16 1.4M
20260506T12Z_MSC_CAPS_WindV_IsbL-1000_RLatLon0.03_PT015H.grib2 2026-05-06 18:16 1.8M
20260506T12Z_MSC_CAPS_WindV_IsbL-1015_RLatLon0.03_PT015H.grib2 2026-05-06 18:16 2.0M